Home > Weather > Kiritimati > Past weeks

Flag for Kiribati Weather for the Past 2 Weeks in Kiritimati, Christmas Island, Kiribati

Now
86 °F

Warm.


Feels Like: 99 °F
Forecast: 79 / 84 °F
Wind: N/A

Location: Christmas / Cassidy

Current Time: May 3, 2016 at 11:47:30 AM

Latest Report: May 3, 2016 at 10:00 AM


Visibility: N/A

Pressure: 29.86 "Hg

Humidity: 79%

Dew Point: 79 °F

Location of KiritimatiLocation

Historic Weather in Kiritimati — Graph

°F

Kiritimati Temperature Yesterday

Maximum temperature yesterday: 88 °F (at 11:00 AM)
Minimum temperature yesterday: 79 °F (at 11:00 PM)
Average temperature yesterday: 84 °F

High & Low Weather Summary for the Past Weeks

 TemperatureHumidityPressure
High90 °F (Apr 23, 4:00 PM)100% (Apr 18, 2:00 PM)29.89 "Hg (Apr 18, 2:00 PM)
Low75 °F (Apr 29, 4:00 AM)67% (Apr 23, 4:00 PM)29.68 "Hg (Apr 26, 5:00 PM)
Average83 °F85%29.79 "Hg
* Reported Apr 18 10:00 AM — May 3 10:00 AM, Kiritimati, Weather by CustomWeather, © 2016

Note: Actual official high and low records may vary slightly from our data, if they occured in-between our weather recording intervals... More about our weather records

Advertising

Kiritimati Weather History for the Previous 24 Hours

Scroll right to see more
 ConditionsComfort  
Time TempWeatherWind HumidityBarometerVisibility
10:00 AM
Tue, May 3
86 °FWarm.N/A79%29.86 "HgN/A
9:00 AM86 °FScattered clouds.12 mph79%29.86 "HgN/A
8:00 AM84 °FWarm.9 mph84%29.83 "HgN/A
7:00 AM81 °FBroken clouds.12 mph89%29.80 "HgN/A
6:00 AM81 °FScattered clouds.16 mph89%29.77 "HgN/A
5:00 AM81 °FScattered clouds.14 mph89%29.71 "HgN/A
4:00 AM81 °FPassing clouds.9 mph89%29.77 "HgN/A
3:00 AM81 °FPassing clouds.9 mph89%29.77 "HgN/A
2:00 AM81 °FScattered showers. Passing clouds.12 mph89%29.77 "HgN/A
1:00 AM81 °FPassing clouds.14 mph94%29.80 "HgN/A
12:00 AM79 °FPassing clouds.7 mph94%29.80 "HgN/A
11:00 PM
Mon, May 2
79 °FRain showers. Partly cloudy.16 mph94%29.83 "Hg1 mi
10:00 PM82 °FPassing clouds.9 mph84%29.80 "HgN/A
9:00 PM82 °FPassing clouds.12 mph79%29.77 "HgN/A
8:00 PM82 °FPassing clouds.12 mph84%29.77 "HgN/A
7:00 PM82 °FPartly cloudy.12 mph84%29.74 "HgN/A
6:00 PM84 °FPassing clouds.14 mph79%29.74 "HgN/A
5:00 PM86 °FPassing clouds.9 mph75%29.71 "HgN/A
4:00 PM88 °FScattered clouds.16 mph70%29.71 "HgN/A
3:00 PM88 °FScattered clouds.17 mph70%29.71 "HgN/A
2:00 PM88 °FPartly sunny.18 mph70%29.74 "HgN/A
1:00 PM88 °FScattered clouds.12 mph75%29.77 "HgN/A
12:00 PM88 °FBroken clouds.16 mph70%29.83 "HgN/A
11:00 AM88 °FBroken clouds.8 mph70%29.83 "HgN/A
Weather by CustomWeather, © 2016

See weather overviewHow to use our weather pages